Location: Hamburg
(53.5500°N, 10.0000°E)
Time: 20:24:30
(UTC+02:00)

ISS - Visible Passes

Search period start: 23 September 2017 00:00
Search period end: 03 October 2017 00:00
Orbit: 401 x 407 km, 51.6° (Epoch: 24 September)

Date Brightness Start Highest point End Pass type
(mag) Time Alt. Az. Time Alt. Az. Time Alt. Az.
26 Sep -1.6 20:29:05 10° S 20:29:53 12° SSE 20:29:53 12° SSE visible
27 Sep -1.9 21:11:19 10° SW 21:12:44 20° SSW 21:12:44 20° SSW visible
28 Sep -2.3 20:19:30 10° SSW 20:22:03 21° SSE 20:22:45 20° SE visible
28 Sep -1.0 21:54:53 10° WSW 21:55:24 14° WSW 21:55:24 14° WSW visible
29 Sep -3.0 21:02:40 10° SW 21:05:17 39° S 21:05:17 39° S visible
30 Sep -2.9 20:10:34 10° SW 20:13:32 32° SSE 20:15:02 21° ESE visible
30 Sep -1.5 21:46:30 10° WSW 21:47:42 21° WSW 21:47:42 21° WSW visible
01 Oct -3.7 20:54:10 10° WSW 20:57:23 56° S 20:57:23 56° S visible
02 Oct -3.4 20:01:53 10° WSW 20:05:03 46° SSE 20:07:01 20° E visible
02 Oct -1.8 21:38:05 10° W 21:39:39 25° WSW 21:39:39 25° WSW visible
